Regional Weather Roundup
Issued by NWS

Home | Current Version | Previous Version | Text Only | Print | Product List | Glossary On
Versions: 1 2 3 4 5 6 7 8 9 10 11 12 13 14 15 16 17 18 19 20 21 22 23 24 25 26 27 28 29 30 31 32 33 34 35 36 37 38 39 40 41 42 43 44 45 46 47 48 49 50
822
ASUS42 KFFC 171410
RWRGA
WEATHER ROUNDUP FOR GEORGIA
NATIONAL WEATHER SERVICE PEACHTREE CITY GA
1000 AM EDT TUE OCT 17 2017

NOTE: "FAIR" INDICATES FEW OR NO CLOUDS BELOW 12,000 FEET WITH NO
SIGNIFICANT WEATHER AND/OR OBSTRUCTIONS TO VISIBILITY.

* = USE WITH CAUTION. THE STATIONS MARKED WITH AN ASTERISK MAY NOT
REPORT WEATHER SUCH AS PRECIPITATION, FOG, OR THUNDER AND ARE NOT
QUALITY CONTROLLED BY NWS.

THE REMARK "TC" DENOTES TEMPERATURE READING IN DEGREES CELSIUS.

GAZ001>058-171500-
NORTH GEORGIA

CITY           SKY/WX    TMP DP  RH WIND       PRES   REMARKS
ATLANTA        MOSUNNY   57  40  52 E20       30.33R
ATHENS         SUNNY     56  43  61 E10       30.36R
CHAMBLEE       SUNNY     56  39  53 E8        30.34R
PEACHTREE CITY SUNNY     57  42  57 E10G20    30.33S
ROME           SUNNY     52  47  83 N7        30.36R
WEST ATLANTA     N/A     56  42  59 NE12      30.34R
GAINESVILLE    SUNNY     55  39  54 E14G22    30.37R
CARTERSVILLE   SUNNY     52  47  83 CALM      30.35S


CITY           SKY/WX    TMP DP  RH WIND       PRES   REMARKS
DALTON*        SUNNY     48  46  93 CALM      30.38R
LAWRENCEVILLE* SUNNY     56  39  53 NE12G17   30.36R
MARIETTA       MOSUNNY   55  40  56 E8        30.34R
KENNESAW*      SUNNY     54  42  64 VRB7      30.35R
CANTON*        SUNNY     54  43  66 E5        30.36R
$$

GAZ059>098-102>109-171500-
CENTRAL GEORGIA

CITY           SKY/WX    TMP DP  RH WIND       PRES   REMARKS
AUGUSTA-BUSH   SUNNY     59  44  57 NE13      30.33R
AUGUSTA-DANIEL SUNNY     59  42  53 NE13G18   30.34R
COLUMBUS       SUNNY     59  42  53 E17       30.29R
MACON          SUNNY     59  43  55 NE15G23   30.32R
ROBINS AFB     SUNNY     58  43  57 E8        30.31R


CITY           SKY/WX    TMP DP  RH WIND       PRES   REMARKS
LAGRANGE*      SUNNY     57  43  59 E12       30.32R
SYLVANIA*      MOSUNNY   56  46  68 NE13G20   30.31R
MILLEDGEVILLE* SUNNY     59  45  58 E10G16    30.34R
$$

GAZ099>101-110>166-171500-
SOUTH GEORGIA

CITY           SKY/WX    TMP DP  RH WIND       PRES   REMARKS
SAVANNAH       CLOUDY    57  47  69 N12       30.26R
VALDOSTA       CLOUDY    60  49  66 NE12      30.21R
ALMA           MOSUNNY   59  46  62 NE10      30.25R
ST SIMONS      CLOUDY    68  59  73 N21G29    30.19R
FT STEWART     CLOUDY    57  46  68 N12G17    30.24R
ALBANY         SUNNY     62  45  53 NE16      30.28R
HUNTER AFB     CLOUDY    60  45  58 NE16      30.22R
MOODY AFB      CLOUDY    60  48  64 NE13      30.21R
BRUNSWICK      CLOUDY    64  54  68 N14G20    30.22R


CITY           SKY/WX    TMP DP  RH WIND       PRES   REMARKS
BAINBRIDGE*    SUNNY     64  50  59 E21G28    30.23R
MOULTRIE*      SUNNY     61  46  59 NE17      30.23R
VIDALIA*       MOSUNNY   61  45  55 E20G25    30.29R
WAYCROSS*      CLOUDY    63  47  56 NE15      30.24R
DOUGLAS*       MOSUNNY   59  43  55 NE15G25   30.27R
$$




USA.gov is the U.S. government's official web portal to all federal, state and local government web resources and services.